Location: Audinghen
(50.8518°N, 1.6129°E)
Time: 10:43:29
(UTC+00:00)

GENESIS II - Pass Details

Date: 07 August 2020
Orbit: 490 x 538 km, 64.5° (Epoch: 20 September)

Event Time Altitude Azimuth Distance (km) Brightness Sun altitude
Rises 00:01:16 0° 318° (NW) 2,694 8.6 -22.8°
Reaches altitude 10° 00:03:30 10° 321° (NW) 1,794 7.6 -22.8°
Maximum altitude 00:07:31 74° 47° (NE) 555 4.3 -22.8°
Enters shadow 00:07:40 73° 70° (ENE) 558 4.3 -22.8°
